Location: Bednik
(45.3500°N, 16.3833°E)
Time: 10:43:42
(UTC+00:00)

Cosmos 2322 Rocket - Pass Details

Date: 08 August 2020
Orbit: 831 x 852 km, 71.0° (Epoch: 20 September)

Event Time Altitude Azimuth Distance (km) Brightness Sun altitude
Rises 21:57:37 0° 330° (NNW) 3,419 6.6 -27.2°
Reaches altitude 10° 22:00:07 10° 326° (NNW) 2,482 5.5 -27.4°
Enters shadow 22:05:39 56° 251° (WSW) 1,012 2.5 -27.6°
